| time (UTC) | temp F | wind direction | speed MPH | gust MPH | rain 1hr in | rain 24hr in | rain mn in | humidity % | barometer mb |
| 20260502162503 | 55 | 136 | 0.0 | 0.0 | 0.18 | 0.23 | 0.23 | 85 | 1012.2 |
| 20260502162004 | 55 | 136 | 0.0 | 0.0 | 0.18 | 0.22 | 0.22 | 84 | 1012.1 |
| 20260502161504 | 55 | 134 | 0.0 | 1.0 | 0.18 | 0.20 | 0.20 | 84 | 1012.2 |
| 20260502161004 | 56 | 134 | 0.0 | 1.0 | 0.17 | 0.19 | 0.19 | 83 | 1012.2 |
| 20260502160504 | 56 | 134 | 1.0 | 1.0 | 0.16 | 0.17 | 0.17 | 82 | 1012.4 |
| 20260502151504 | 59 | 117 | 1.0 | 3.0 | 0.02 | 0.02 | 0.02 | 74 | 1012.8 |
| 20260502151004 | 60 | 117 | 1.0 | 2.0 | 0.02 | 0.02 | 0.02 | 73 | 1012.7 |
| 20260502150503 | 60 | 117 | 0.0 | 1.0 | 0.01 | 0.01 | 0.01 | 70 | 1012.7 |
| 20260502123503 | 66 | 64 | 2.0 | 3.0 | 0.00 | 0.00 | 0.00 | 61 | 1014.1 |
| 20260502123004 | 65 | 215 | 1.0 | 3.0 | 0.00 | 0.00 | 0.00 | 61 | 1014.2 |
| 20260502122004 | 65 | 228 | 2.0 | 5.0 | 0.00 | 0.00 | 0.00 | 61 | 1014.4 |
| 20260502121504 | 65 | 228 | 2.0 | 6.0 | 0.00 | 0.00 | 0.00 | 60 | 1014.5 |
| 20260502120503 | 65 | 281 | 3.0 | 9.0 | 0.00 | 0.00 | 0.00 | 61 | 1014.6 |
| 20260502115003 | 65 | 123 | 2.0 | 3.0 | 0.00 | 0.00 | 0.00 | 62 | 1014.8 |
| 20260502114004 | 64 | 114 | 3.0 | 7.0 | 0.00 | 0.00 | 0.00 | 62 | 1014.9 |
| 20260502113503 | 64 | 125 | 3.0 | 7.0 | 0.00 | 0.00 | 0.00 | 63 | 1015.0 |
| 20260502113004 | 64 | 146 | 4.0 | 7.0 | 0.00 | 0.00 | 0.00 | 64 | 1015.1 |
| 20260502112504 | 63 | 95 | 2.0 | 3.0 | 0.00 | 0.00 | 0.00 | 65 | 1015.2 |
| 20260502112003 | 62 | 99 | 5.0 | 9.0 | 0.00 | 0.00 | 0.00 | 68 | 1015.4 |
| 20260502111504 | 62 | 119 | 1.0 | 6.0 | 0.00 | 0.00 | 0.00 | 68 | 1015.5 |
| 20260502111004 | 61 | 142 | 2.0 | 6.0 | 0.00 | 0.00 | 0.00 | 68 | 1015.7 |
| 20260502110504 | 61 | 163 | 3.0 | 7.0 | 0.00 | 0.00 | 0.00 | 66 | 1015.7 |
| 20260502110004 | 61 | 130 | 4.0 | 8.0 | 0.00 | 0.00 | 0.00 | 68 | 1015.8 |
| 20260502105503 | 61 | 186 | 3.0 | 9.0 | 0.00 | 0.00 | 0.00 | 69 | 1015.8 |
| 20260502105003 | 60 | 112 | 4.0 | 10.0 | 0.00 | 0.00 | 0.00 | 69 | 1015.9 |
| 20260502104503 | 60 | 202 | 3.0 | 6.0 | 0.00 | 0.00 | 0.00 | 68 | 1016.0 |
| 20260502104004 | 61 | 214 | 2.0 | 3.0 | 0.00 | 0.00 | 0.00 | 67 | 1015.9 |
| 20260502103504 | 61 | 215 | 2.0 | 5.0 | 0.00 | 0.00 | 0.00 | 66 | 1015.9 |
| 20260502103003 | 61 | 185 | 2.0 | 3.0 | 0.00 | 0.00 | 0.00 | 67 | 1016.0 |
| 20260502102504 | 61 | 181 | 4.0 | 7.0 | 0.00 | 0.00 | 0.00 | 67 | 1016.0 |
| 20260502102005 | 61 | 134 | 2.0 | 7.0 | 0.00 | 0.00 | 0.00 | 72 | 1016.0 |
| 20260502101504 | 60 | 114 | 5.0 | 8.0 | 0.00 | 0.00 | 0.00 | 70 | 1016.0 |
| 20260502101005 | 60 | 102 | 3.0 | 6.0 | 0.00 | 0.00 | 0.00 | 72 | 1016.1 |
| 20260502100504 | 59 | 134 | 4.0 | 7.0 | 0.00 | 0.00 | 0.00 | 73 | 1016.2 |
| 20260502091004 | 57 | 231 | 1.0 | 2.0 | 0.00 | 0.00 | 0.00 | 81 | 1016.4 |
| 20260502071003 | 49 | 233 | 0.0 | 1.0 | 0.00 | 0.00 | 0.00 | 91 | 1017.2 |
| 20260502070504 | 49 | 233 | 0.0 | 1.0 | 0.00 | 0.00 | 0.00 | 92 | 1017.2 |
| 20260502070004 | 48 | 201 | 0.0 | 1.0 | 0.00 | 0.00 | 0.00 | 93 | 1017.2 |
| 20260502065503 | 48 | 229 | 0.0 | 0.0 | 0.00 | 0.00 | 0.00 | 93 | 1017.2 |
| 20260502065005 | 47 | 229 | 0.0 | 0.0 | 0.00 | 0.00 | 0.00 | 93 | 1017.2 |
| 20260502064504 | 47 | 229 | 0.0 | 0.0 | 0.00 | 0.00 | 0.00 | 93 | 1017.3 |
| 20260502064003 | 47 | 229 | 0.0 | 0.0 | 0.00 | 0.00 | 0.00 | 94 | 1017.3 |
| 20260502063504 | 46 | 229 | 0.0 | 0.0 | 0.00 | 0.00 | 0.00 | 94 | 1017.3 |
| 20260502063004 | 46 | 229 | 0.0 | 0.0 | 0.00 | 0.00 | 0.00 | 94 | 1017.4 |
| 20260502062504 | 46 | 229 | 0.0 | 0.0 | 0.00 | 0.00 | 0.00 | 94 | 1017.4 |
| 20260502062004 | 45 | 229 | 0.0 | 0.0 | 0.00 | 0.00 | 0.00 | 94 | 1017.5 |
| 20260502061504 | 45 | 229 | 0.0 | 0.0 | 0.00 | 0.00 | 0.00 | 94 | 1017.5 |
| 20260502061004 | 44 | 229 | 0.0 | 0.0 | 0.00 | 0.00 | 0.00 | 94 | 1017.6 |
| 20260502060503 | 44 | 229 | 0.0 | 0.0 | 0.00 | 0.00 | 0.00 | 94 | 1017.6 |
| 20260502060004 | 44 | 229 | 0.0 | 0.0 | 0.00 | 0.00 | 0.00 | 93 | 1017.6 |
| 20260502055004 | 43 | 229 | 0.0 | 0.0 | 0.00 | 0.00 | 0.00 | 93 | 1017.5 |
| 20260502054503 | 43 | 229 | 0.0 | 0.0 | 0.00 | 0.00 | 0.00 | 92 | 1017.6 |
| 20260502054004 | 42 | 229 | 0.0 | 0.0 | 0.00 | 0.00 | 0.00 | 92 | 1017.6 |
| 20260502053504 | 42 | 229 | 0.0 | 0.0 | 0.00 | 0.00 | 0.00 | 92 | 1017.6 |
| 20260502053004 | 42 | 229 | 0.0 | 0.0 | 0.00 | 0.00 | 0.00 | 92 | 1017.6 |
| 20260502052504 | 42 | 229 | 0.0 | 0.0 | 0.00 | 0.00 | 0.00 | 91 | 1017.5 |
| 20260502052004 | 42 | 229 | 0.0 | 0.0 | 0.00 | 0.00 | 0.00 | 91 | 1017.5 |
| 20260502051504 | 42 | 229 | 0.0 | 0.0 | 0.00 | 0.00 | 0.00 | 91 | 1017.4 |
| 20260502051004 | 42 | 229 | 0.0 | 0.0 | 0.00 | 0.00 | 0.00 | 91 | 1017.4 |
| 20260502050504 | 42 | 229 | 0.0 | 0.0 | 0.00 | 0.00 | 0.00 | 91 | 1017.3 |
| 20260502050003 | 42 | 226 | 0.0 | 0.0 | 0.00 | 0.00 | 0.00 | 91 | 1017.2 |
| 20260502045504 | 42 | 226 | 0.0 | 0.0 | 0.00 | 0.00 | 0.00 | 91 | 1017.2 |
| 20260502044504 | 42 | 226 | 0.0 | 0.0 | 0.00 | 0.00 | 0.00 | 91 | 1017.2 |
| 20260502044004 | 42 | 226 | 0.0 | 0.0 | 0.00 | 0.00 | 0.00 | 91 | 1017.1 |
| 20260502043003 | 42 | 226 | 0.0 | 0.0 | 0.00 | 0.00 | 0.00 | 91 | 1017.1 |
| 20260502042503 | 42 | 226 | 0.0 | 0.0 | 0.00 | 0.00 | 0.00 | 91 | 1017.1 |
| 20260502042004 | 42 | 226 | 0.0 | 0.0 | 0.00 | 0.00 | 0.00 | 91 | 1017.2 |
| 20260502041503 | 42 | 226 | 0.0 | 0.0 | 0.00 | 0.00 | 0.00 | 91 | 1017.3 |
| 20260502041003 | 42 | 226 | 0.0 | 0.0 | 0.00 | 0.00 | 0.00 | 91 | 1017.3 |
| 20260502040504 | 42 | 226 | 0.0 | 0.0 | 0.00 | 0.00 | 0.00 | 91 | 1017.3 |
| 20260502040004 | 42 | 226 | 0.0 | 0.0 | 0.00 | 0.00 | 0.00 | 91 | 1017.3 |
| 20260502035503 | 42 | 226 | 1.0 | 1.0 | 0.00 | 0.00 | 0.00 | 90 | 1017.3 |
| 20260502035003 | 42 | 226 | 0.0 | 0.0 | 0.00 | 0.00 | 0.00 | 90 | 1017.4 |
| 20260502034004 | 42 | 226 | 0.0 | 1.0 | 0.00 | 0.00 | 0.00 | 90 | 1017.5 |
| 20260502033503 | 43 | 226 | 0.0 | 1.0 | 0.00 | 0.00 | 0.00 | 90 | 1017.6 |
| 20260502033004 | 43 | 226 | 0.0 | 1.0 | 0.00 | 0.00 | 0.00 | 90 | 1017.7 |
| 20260502032504 | 43 | 226 | 0.0 | 0.0 | 0.00 | 0.00 | 0.00 | 91 | 1017.7 |
| 20260502031504 | 43 | 226 | 0.0 | 0.0 | 0.00 | 0.00 | 0.00 | 90 | 1017.8 |
| 20260502031004 | 43 | 226 | 0.0 | 3.0 | 0.00 | 0.00 | 0.00 | 90 | 1017.9 |
| 20260502030503 | 43 | 226 | 1.0 | 2.0 | 0.00 | 0.00 | 0.00 | 90 | 1017.9 |
| 20260502030004 | 43 | 226 | 1.0 | 2.0 | 0.00 | 0.00 | 0.00 | 90 | 1017.9 |
| 20260502025503 | 43 | 226 | 0.0 | 0.0 | 0.00 | 0.00 | 0.00 | 90 | 1018.0 |
| 20260502025003 | 43 | 226 | 0.0 | 0.0 | 0.00 | 0.00 | 0.00 | 90 | 1018.0 |
| 20260502024503 | 43 | 226 | 0.0 | 0.0 | 0.00 | 0.00 | 0.00 | 90 | 1018.0 |
| 20260502024004 | 43 | 226 | 0.0 | 0.0 | 0.00 | 0.00 | 0.00 | 90 | 1018.0 |
| 20260502023503 | 43 | 226 | 0.0 | 1.0 | 0.00 | 0.00 | 0.00 | 90 | 1018.1 |
| 20260502022503 | 44 | 225 | 0.0 | 2.0 | 0.00 | 0.00 | 0.00 | 90 | 1018.2 |
| 20260502022003 | 44 | 225 | 0.0 | 2.0 | 0.00 | 0.00 | 0.00 | 90 | 1018.4 |
| 20260502021503 | 44 | 225 | 0.0 | 2.0 | 0.00 | 0.00 | 0.00 | 90 | 1018.4 |
| 20260502020504 | 44 | 225 | 2.0 | 3.0 | 0.00 | 0.00 | 0.00 | 90 | 1018.4 |
| 20260502020004 | 44 | 226 | 2.0 | 3.0 | 0.00 | 0.00 | 0.00 | 90 | 1018.4 |
| 20260502015504 | 44 | 226 | 0.0 | 1.0 | 0.00 | 0.00 | 0.00 | 89 | 1018.4 |
| 20260502014504 | 44 | 226 | 2.0 | 3.0 | 0.00 | 0.00 | 0.00 | 89 | 1018.5 |
| 20260502014004 | 44 | 226 | 0.0 | 2.0 | 0.00 | 0.00 | 0.00 | 89 | 1018.5 |
| 20260502013504 | 44 | 226 | 1.0 | 2.0 | 0.00 | 0.00 | 0.00 | 89 | 1018.5 |
| 20260502013005 | 45 | 226 | 0.0 | 0.0 | 0.00 | 0.00 | 0.00 | 89 | 1018.5 |
| 20260502012503 | 45 | 226 | 0.0 | 0.0 | 0.00 | 0.00 | 0.00 | 89 | 1018.5 |
| 20260502012003 | 45 | 226 | 0.0 | 0.0 | 0.00 | 0.00 | 0.00 | 89 | 1018.7 |
| 20260502011504 | 45 | 226 | 0.0 | 0.0 | 0.00 | 0.00 | 0.00 | 89 | 1018.6 |
| 20260502011004 | 45 | 226 | 0.0 | 0.0 | 0.00 | 0.00 | 0.00 | 89 | 1018.6 |
| 20260502010004 | 46 | 226 | 0.0 | 2.0 | 0.00 | 0.00 | 0.00 | 89 | 1018.7 |
| 20260502005504 | 46 | 226 | 2.0 | 3.0 | 0.00 | 0.00 | 0.00 | 89 | 1018.8 |
| 20260502005004 | 46 | 226 | 1.0 | 3.0 | 0.00 | 0.00 | 0.00 | 89 | 1018.9 |
| 20260502004504 | 46 | 226 | 2.0 | 3.0 | 0.00 | 0.00 | 0.00 | 89 | 1018.8 |
| 20260502004004 | 46 | 226 | 2.0 | 3.0 | 0.00 | 0.00 | 0.00 | 89 | 1018.9 |
| 20260502003004 | 46 | 226 | 0.0 | 0.0 | 0.00 | 0.00 | 0.00 | 88 | 1019.0 |
| 20260502002503 | 46 | 226 | 0.0 | 1.0 | 0.00 | 0.00 | 0.00 | 88 | 1019.1 |
| 20260502002003 | 47 | 226 | 0.0 | 1.0 | 0.00 | 0.00 | 0.00 | 88 | 1019.0 |
| 20260502000504 | 47 | 226 | 0.0 | 0.0 | 0.00 | 0.00 | 0.00 | 88 | 1019.0 |
| 20260502000004 | 48 | 226 | 0.0 | 0.0 | 0.00 | 0.00 | 0.00 | 88 | 1019.0 |
| 20260501235503 | 48 | 226 | 0.0 | 2.0 | 0.00 | 0.00 | 0.00 | 88 | 1019.0 |
| 20260501234504 | 48 | 226 | 0.0 | 2.0 | 0.00 | 0.00 | 0.00 | 89 | 1019.0 |
| 20260501234004 | 48 | 226 | 1.0 | 1.0 | 0.00 | 0.00 | 0.00 | 89 | 1019.1 |
| 20260501232503 | 49 | 226 | 2.0 | 3.0 | 0.00 | 0.00 | 0.00 | 89 | 1019.2 |
| 20260501232004 | 49 | 231 | 3.0 | 3.0 | 0.00 | 0.00 | 0.00 | 89 | 1019.3 |
| 20260501231003 | 49 | 235 | 2.0 | 3.0 | 0.00 | 0.00 | 0.00 | 89 | 1019.4 |
| 20260501230503 | 49 | 236 | 2.0 | 3.0 | 0.00 | 0.00 | 0.00 | 88 | 1019.5 |
| 20260501230004 | 49 | 236 | 0.0 | 1.0 | 0.00 | 0.00 | 0.00 | 88 | 1019.4 |
| 20260501225504 | 49 | 236 | 1.0 | 2.0 | 0.00 | 0.00 | 0.00 | 88 | 1019.4 |
| 20260501225004 | 49 | 236 | 1.0 | 3.0 | 0.00 | 0.00 | 0.00 | 88 | 1019.4 |
| 20260501224004 | 49 | 236 | 2.0 | 3.0 | 0.00 | 0.00 | 0.00 | 88 | 1019.4 |
| 20260501223504 | 49 | 236 | 3.0 | 5.0 | 0.00 | 0.00 | 0.00 | 88 | 1019.4 |
| 20260501223004 | 49 | 236 | 3.0 | 5.0 | 0.00 | 0.00 | 0.00 | 88 | 1019.4 |
| 20260501222504 | 49 | 242 | 2.0 | 3.0 | 0.00 | 0.00 | 0.00 | 88 | 1019.5 |
| 20260501222004 | 49 | 249 | 2.0 | 3.0 | 0.00 | 0.00 | 0.00 | 88 | 1019.5 |
| 20260501221503 | 49 | 250 | 2.0 | 3.0 | 0.00 | 0.00 | 0.00 | 88 | 1019.5 |
| 20260501221004 | 50 | 255 | 2.0 | 5.0 | 0.00 | 0.00 | 0.00 | 88 | 1019.5 |
| 20260501220504 | 50 | 253 | 2.0 | 3.0 | 0.00 | 0.00 | 0.00 | 87 | 1019.4 |
| 20260501215504 | 50 | 255 | 5.0 | 5.0 | 0.00 | 0.00 | 0.00 | 87 | 1019.5 |
| 20260501215004 | 50 | 249 | 3.0 | 7.0 | 0.00 | 0.00 | 0.00 | 87 | 1019.4 |
| 20260501214504 | 50 | 252 | 3.0 | 5.0 | 0.00 | 0.00 | 0.00 | 86 | 1019.4 |
| 20260501213504 | 50 | 262 | 2.0 | 3.0 | 0.00 | 0.00 | 0.00 | 86 | 1019.3 |
| 20260501213004 | 50 | 261 | 2.0 | 3.0 | 0.00 | 0.00 | 0.00 | 86 | 1019.3 |
| 20260501212004 | 50 | 257 | 2.0 | 3.0 | 0.00 | 0.00 | 0.00 | 84 | 1019.3 |
| 20260501211503 | 51 | 257 | 2.0 | 3.0 | 0.00 | 0.00 | 0.00 | 84 | 1019.3 |
| 20260501211003 | 51 | 257 | 2.0 | 3.0 | 0.00 | 0.00 | 0.00 | 84 | 1019.3 |
| 20260501210505 | 51 | 257 | 2.0 | 3.0 | 0.00 | 0.00 | 0.00 | 83 | 1019.3 |
| 20260501210003 | 51 | 257 | 2.0 | 3.0 | 0.00 | 0.00 | 0.00 | 83 | 1019.2 |
| 20260501205504 | 51 | 257 | 3.0 | 3.0 | 0.00 | 0.00 | 0.00 | 82 | 1019.3 |
| 20260501205004 | 51 | 253 | 2.0 | 3.0 | 0.00 | 0.00 | 0.00 | 82 | 1019.3 |
| 20260501204503 | 52 | 253 | 2.0 | 3.0 | 0.00 | 0.00 | 0.00 | 82 | 1019.2 |
| 20260501204004 | 52 | 253 | 2.0 | 3.0 | 0.00 | 0.00 | 0.00 | 81 | 1019.1 |
| 20260501203504 | 52 | 253 | 2.0 | 3.0 | 0.00 | 0.00 | 0.00 | 80 | 1019.1 |
| 20260501202503 | 53 | 251 | 1.0 | 2.0 | 0.00 | 0.00 | 0.00 | 81 | 1019.1 |
| 20260501202003 | 53 | 251 | 2.0 | 3.0 | 0.00 | 0.00 | 0.00 | 80 | 1019.0 |
| 20260501201503 | 53 | 252 | 1.0 | 3.0 | 0.00 | 0.00 | 0.00 | 79 | 1019.0 |
| 20260501201004 | 53 | 252 | 1.0 | 2.0 | 0.00 | 0.00 | 0.00 | 78 | 1019.0 |
| 20260501200503 | 54 | 252 | 1.0 | 2.0 | 0.00 | 0.00 | 0.00 | 78 | 1018.9 |
| 20260501200004 | 54 | 252 | 2.0 | 3.0 | 0.00 | 0.00 | 0.00 | 77 | 1018.9 |
| 20260501195004 | 54 | 253 | 2.0 | 3.0 | 0.00 | 0.00 | 0.00 | 75 | 1018.9 |
| 20260501194504 | 55 | 258 | 3.0 | 6.0 | 0.00 | 0.00 | 0.00 | 74 | 1018.9 |
| 20260501194003 | 55 | 264 | 2.0 | 6.0 | 0.00 | 0.00 | 0.00 | 74 | 1018.9 |
| 20260501193504 | 55 | 265 | 2.0 | 6.0 | 0.00 | 0.00 | 0.00 | 73 | 1018.9 |
| 20260501193004 | 56 | 266 | 2.0 | 3.0 | 0.00 | 0.00 | 0.00 | 72 | 1018.8 |
| 20260501192003 | 56 | 271 | 2.0 | 3.0 | 0.00 | 0.00 | 0.00 | 71 | 1018.7 |
| 20260501191004 | 57 | 271 | 2.0 | 3.0 | 0.00 | 0.00 | 0.00 | 70 | 1018.7 |
| 20260501190503 | 57 | 271 | 2.0 | 5.0 | 0.00 | 0.00 | 0.00 | 69 | 1018.7 |
| 20260501190003 | 58 | 243 | 3.0 | 3.0 | 0.00 | 0.00 | 0.00 | 69 | 1018.6 |
| 20260501185504 | 58 | 240 | 3.0 | 3.0 | 0.00 | 0.00 | 0.00 | 69 | 1018.6 |
| 20260501185005 | 58 | 237 | 2.0 | 3.0 | 0.00 | 0.00 | 0.00 | 68 | 1018.5 |
| 20260501184504 | 58 | 236 | 3.0 | 5.0 | 0.00 | 0.00 | 0.00 | 68 | 1018.5 |
| 20260501184004 | 59 | 230 | 3.0 | 6.0 | 0.00 | 0.00 | 0.00 | 67 | 1018.4 |
| 20260501183504 | 59 | 258 | 5.0 | 7.0 | 0.00 | 0.00 | 0.00 | 67 | 1018.5 |
| 20260501183003 | 59 | 268 | 5.0 | 9.0 | 0.00 | 0.00 | 0.00 | 67 | 1018.5 |
| 20260501182504 | 60 | 270 | 5.0 | 12.0 | 0.00 | 0.00 | 0.00 | 69 | 1018.5 |
| 20260501182004 | 60 | 245 | 6.0 | 9.0 | 0.00 | 0.00 | 0.00 | 68 | 1018.5 |
| 20260501181504 | 60 | 250 | 5.0 | 10.0 | 0.00 | 0.00 | 0.00 | 67 | 1018.5 |
| 20260501181003 | 60 | 276 | 4.0 | 9.0 | 0.00 | 0.00 | 0.00 | 67 | 1018.5 |
| 20260501180503 | 60 | 263 | 8.0 | 12.0 | 0.00 | 0.00 | 0.00 | 66 | 1018.5 |
| 20260501180004 | 60 | 278 | 7.0 | 13.0 | 0.00 | 0.00 | 0.00 | 66 | 1018.6 |
| 20260501175504 | 60 | 271 | 6.0 | 10.0 | 0.00 | 0.00 | 0.00 | 67 | 1018.6 |
| 20260501175004 | 60 | 259 | 5.0 | 7.0 | 0.00 | 0.00 | 0.00 | 67 | 1018.6 |
| 20260501174504 | 60 | 243 | 5.0 | 9.0 | 0.00 | 0.00 | 0.00 | 67 | 1018.6 |
| 20260501174003 | 60 | 262 | 7.0 | 12.0 | 0.00 | 0.00 | 0.00 | 67 | 1018.7 |
| 20260501173504 | 61 | 247 | 3.0 | 9.0 | 0.00 | 0.00 | 0.00 | 67 | 1018.7 |
| 20260501173003 | 61 | 251 | 4.0 | 9.0 | 0.00 | 0.00 | 0.00 | 66 | 1018.6 |
| 20260501172503 | 61 | 237 | 5.0 | 9.0 | 0.00 | 0.00 | 0.00 | 66 | 1018.6 |
| 20260501172004 | 61 | 245 | 5.0 | 8.0 | 0.00 | 0.00 | 0.00 | 65 | 1018.6 |
| 20260501171003 | 61 | 267 | 6.0 | 9.0 | 0.00 | 0.00 | 0.00 | 63 | 1018.5 |
| 20260501170503 | 62 | 248 | 7.0 | 10.0 | 0.00 | 0.00 | 0.00 | 63 | 1018.5 |
| 20260501170004 | 62 | 228 | 6.0 | 10.0 | 0.00 | 0.00 | 0.00 | 63 | 1018.6 |
| 20260501165503 | 62 | 213 | 5.0 | 12.0 | 0.00 | 0.00 | 0.00 | 64 | 1018.5 |
| 20260501165004 | 62 | 228 | 6.0 | 12.0 | 0.00 | 0.00 | 0.00 | 66 | 1018.7 |
| 20260501163503 | 62 | 276 | 7.0 | 12.0 | 0.00 | 0.00 | 0.00 | 65 | 1018.7 |
| 20260501163004 | 62 | 232 | 6.0 | 9.0 | 0.00 | 0.00 | 0.00 | 66 | 1018.7 |